Terminal Aerodrome Forecast
Issued by NWS

Home | Current Version | Previous Version | Text Only | Print | Product List | Glossary Off
Versions: 1 2 3 4 5 6 7 8 9 10 11 12 13 14 15 16 17 18 19 20 21 22 23 24 25 26 27 28 29 30 31 32 33

000
FTUS43 KLOT 221600 AAB
TAFMDW
TAF AMD
KMDW 221611Z 2216/2312 15010KT 6SM HZ SCT040 OVC060
     FM221700 12012KT 5SM -RA BR BKN015 OVC040
     FM222100 14012KT 3SM RA BR OVC007
     FM230300 15010KT 2SM -DZRA BR OVC004=

USA.gov is the U.S. government's official web portal to all federal, state and local government web resources and services.